Location: Brno
(49.2000°N, 16.6330°E)
Time: 10:48:01
(UTC+02:00)

ISS - Pass Details

Date: 21 May 2021
Orbit: 417 x 422 km, 51.6° (Epoch: 13 June)

Event Time Altitude Azimuth Distance (km) Brightness Sun altitude
Rises 23:45:13 0° 288° (WNW) 2,369 0.5 -18.9°
Reaches altitude 10° 23:47:19 10° 289° (WNW) 1,504 -0.5 -19.0°
Maximum altitude 23:50:42 81° 16° (NNE) 431 -3.8 -19.2°
Enters shadow 23:51:19 56° 93° (E) 506 -3.6 -19.2°
